Wind_Speed
5 4 5 6 8 8 7 1 1 2 2 2 4 2 8 10 8 10 9 3 5 4 7 11 11 11 11 12 14 13 9 4 1 2 3 8 23 31 31 31 29 28 27 24 22 20 18 17 16 16 15 16 16 16 16 15 13 13 13 13 12 13 15 18 18 18 19 20 19 18 17 16 17 17 17 17 17 16 16 16 16 16 15 15 14 14 14 14 14 14 14 14 15 14 14 16 19
6 7 6 9 10 4 3 1 1 3 1 3 4 4 10 8 7 9 3 5 6 6 11 14 15 17 18 16 13 12 10 9 8 6 8 21 28 28 29 27 25 27 27 24 23 21 19 18 17 16 16 16 16 16 16 14 13 12 13 13 12 13 16 18 18 19 20 19 19 18 16 16 17 16 17 17 17 16 16 16 16 16 15 15 14 14 14 13 13 13 14 13 13 13 14 17 18
8 9 8 8 7 3 2 1 1 2 2 4 5 6 8 7 5 2 5 6 8 10 12 14 14 12 13 13 10 8 5 6 11 8 9 22 21 21 27 23 23 26 26 24 22 21 20 19 18 17 16 17 16 16 15 14 13 12 13 13 13 14 17 19 19 20 19 18 19 18 15 16 16 16 17 17 17 16 16 16 16 16 15 14 13 13 13 12 12 12 11 11 11 11 12 15 15
8 7 7 5 2 2 1 1 3 3 3 4 5 6 4 2 2 7 6 4 7 9 9 12 12 8 13 16 9 8 7 4 9 8 6 16 21 24 26 23 26 26 25 23 22 22 20 19 18 17 17 17 16 16 15 14 13 12 13 14 13 14 17 18 17 18 18 17 18 17 15 15 15 15 16 16 16 16 16 16 15 15 14 13 12 12 11 11 10 9 8 9 10 10 11 11 11
8 7 7 4 1 1 1 2 3 3 5 4 5 5 4 2 5 5 4 4 6 10 11 11 9 8 13 12 6 5 7 6 8 11 12 20 29 28 26 26 27 26 24 21 21 21 19 19 17 17 17 16 16 15 15 14 12 12 13 14 14 15 17 16 16 17 17 16 16 15 15 14 14 14 15 16 16 16 16 15 14 13 13 11 11 10 10 9 8 7 7 8 9 9 9 9 8
7 7 7 4 2 2 0 3 3 4 6 6 6 6 5 1 4 4 5 5 9 14 14 12 12 12 11 8 7 5 9 10 9 14 18 25 29 27 26 27 27 26 23 19 19 21 19 18 17 17 16 16 16 15 15 14 12 12 13 15 15 15 17 16 16 17 15 14 14 14 14 13 13 13 13 15 15 15 14 13 12 12 11 9 9 9 9 7 6 6 6 7 7 6 7 8 9
5 5 3 2 2 2 1 4 4 5 8 9 9 8 5 2 3 4 6 6 7 12 15 13 14 13 8 5 7 10 14 15 12 16 23 26 27 26 26 27 28 26 22 18 18 20 20 19 18 17 16 15 15 14 13 13 12 12 13 15 15 16 17 16 15 16 14 13 14 14 14 13 13 12 12 13 13 13 13 11 10 9 8 6 7 8 7 7 6 6 5 5 5 5 7 10 14
6 3 1 1 1 2 2 4 5 6 8 10 10 5 2 3 2 4 5 5 2 7 14 12 16 15 8 8 6 11 21 22 21 25 27 26 25 25 26 28 28 25 21 18 18 21 20 19 18 16 16 15 14 13 12 13 13 12 13 15 16 16 17 17 17 17 14 13 15 14 13 13 12 11 11 12 11 11 11 9 9 8 7 6 7 7 7 7 6 5 4 4 3 4 9 13 16
6 4 1 1 2 2 3 4 6 8 10 12 12 7 4 4 4 4 2 4 5 8 13 11 17 15 8 14 9 7 17 24 28 28 26 24 24 25 26 28 27 25 21 17 20 22 20 19 17 16 16 15 14 13 12 13 13 12 13 14 15 16 16 17 18 17 14 14 14 13 12 12 11 11 11 10 9 9 8 7 8 7 7 7 7 8 8 7 6 5 4 4 3 5 11 15 16
3 4 2 1 2 3 5 5 7 9 11 13 12 8 4 3 5 4 2 4 6 10 14 13 17 15 11 13 7 6 14 23 27 25 24 24 23 24 28 29 26 24 20 19 22 22 21 19 17 17 16 15 14 13 13 13 12 12 13 13 15 16 16 16 18 16 14 14 13 12 12 11 10 10 9 8 7 6 6 6 6 6 6 6 7 7 7 7 6 6 5 4 4 7 13 16 16
1 3 2 2 3 4 5 5 7 8 11 12 8 6 4 2 4 3 1 2 6 15 17 15 14 14 13 9 5 10 19 23 24 23 23 22 22 26 30 29 25 22 19 19 23 22 22 20 17 17 15 15 14 14 14 13 12 13 13 14 16 16 15 15 17 16 14 13 13 12 11 10 9 9 8 6 5 4 4 5 4 4 5 5 6 6 6 6 6 6 6 5 5 8 14 17 16
2 4 2 3 4 5 6 6 8 9 10 9 4 4 6 6 4 2 2 2 7 15 15 14 10 11 12 6 5 12 21 22 22 22 21 22 25 28 30 29 25 19 16 20 24 23 22 20 18 17 16 16 15 14 14 13 12 13 14 14 16 15 14 15 15 14 13 12 12 11 10 9 8 7 6 5 4 2 2 3 3 5 5 5 5 5 4 5 6 6 6 6 5 7 14 17 16
4 4 1 3 4 5 6 7 8 8 9 5 3 2 5 7 4 1 2 4 7 10 12 15 12 11 10 5 5 9 14 20 23 22 21 24 27 30 30 27 22 16 16 21 24 23 21 20 18 17 16 16 16 15 13 13 13 14 15 15 16 15 14 14 13 12 12 12 12 10 9 8 6 5 4 2 1 1 1 2 4 6 5 5 5 4 3 4 5 6 6 7 6 7 13 16 16
4 3 2 4 4 5 5 6 7 7 7 3 5 6 6 5 4 3 2 5 10 11 12 15 15 14 9 5 6 4 10 20 25 22 23 27 29 33 30 22 19 19 20 22 23 22 20 19 18 17 16 16 16 15 14 13 15 16 16 16 16 16 15 14 13 12 11 12 11 10 8 7 5 4 3 2 2 2 2 1 4 6 5 5 4 4 3 3 4 5 6 7 7 6 11 15 14
5 2 2 3 4 5 5 6 8 7 6 3 5 7 7 4 2 2 2 10 13 12 12 13 12 11 8 8 6 5 14 24 24 23 27 31 32 33 29 24 22 21 20 22 21 19 19 18 18 18 16 16 15 14 14 14 15 16 16 15 15 16 15 13 12 12 11 12 11 10 8 7 6 5 4 3 3 3 3 1 5 6 4 4 3 3 3 3 3 5 6 7 8 7 10 14 13
5 3 1 3 5 5 5 5 8 7 5 3 4 6 9 6 7 3 3 13 12 10 11 6 5 7 10 9 12 15 20 25 25 27 32 34 33 29 26 25 23 22 22 21 19 17 18 18 18 17 16 14 13 13 14 14 15 15 15 14 14 14 14 13 12 11 11 12 11 10 8 7 6 5 5 3 3 2 2 3 6 7 5 4 3 2 2 2 3 4 6 7 7 8 10 13 12
4 3 2 4 5 6 5 4 6 4 2 2 2 4 7 6 9 6 7 17 15 15 15 10 9 10 12 13 20 24 23 25 27 30 31 30 30 25 20 19 19 22 23 22 19 17 17 17 18 17 15 14 13 13 13 14 14 14 14 14 14 14 14 13 11 11 11 10 10 10 9 9 8 7 8 7 4 3 3 4 7 8 6 4 3 2 1 2 2 3 5 6 7 8 11 13 12
3 3 4 5 5 6 6 4 4 2 1 3 2 4 7 5 7 6 7 18 17 16 16 15 17 15 17 21 25 26 25 27 28 28 27 25 24 20 15 13 15 18 20 22 20 19 17 17 18 17 16 15 13 13 13 14 13 13 13 13 14 14 14 12 11 10 9 9 9 9 10 9 9 8 8 7 6 5 4 5 7 9 8 6 4 2 1 1 1 2 4 6 7 9 13 15 12
4 3 4 5 5 6 8 5 2 4 2 3 4 4 6 6 7 6 5 15 17 15 13 16 18 15 18 21 23 23 23 24 25 26 25 23 20 17 14 12 15 16 18 21 21 20 18 17 18 18 18 16 14 13 13 14 14 13 12 12 12 13 13 11 10 9 8 8 8 9 9 8 8 7 7 7 7 6 4 5 7 9 10 8 6 4 2 1 0 1 3 5 7 10 14 15 12
4 3 4 6 6 8 10 3 5 6 5 3 3 1 2 6 7 4 5 14 17 14 11 14 15 14 15 14 17 19 17 17 19 22 23 23 20 19 17 15 15 16 18 20 21 19 17 17 18 18 18 17 15 13 14 16 15 13 13 12 12 12 12 12 12 11 10 9 10 10 9 9 9 8 8 7 6 6 5 6 6 9 11 11 9 6 4 3 2 2 3 4 7 10 12 12 11
3 5 7 6 4 7 10 1 6 6 7 7 3 4 4 6 5 5 7 11 12 11 11 15 16 16 15 12 13 14 12 14 19 22 22 22 20 18 17 16 16 17 18 20 19 17 15 16 18 19 18 17 15 14 16 17 16 13 13 13 13 13 13 13 13 13 12 11 11 11 9 9 9 9 10 8 6 6 5 5 6 9 11 12 11 9 7 6 4 4 4 5 6 7 8 9 9
3 7 8 8 5 8 11 1 5 5 7 7 5 5 1 1 3 6 9 8 8 10 13 17 18 16 15 13 12 12 11 14 18 20 20 20 19 17 17 16 16 16 17 19 18 16 15 16 18 19 18 17 15 15 16 17 16 13 12 12 12 13 13 13 13 12 12 12 12 11 10 9 9 8 9 8 7 7 5 4 5 7 10 12 12 11 9 8 7 5 6 6 6 6 6 5 6
4 6 6 8 8 10 10 1 5 5 6 7 6 4 1 3 3 6 10 9 11 15 17 19 18 17 18 15 12 11 11 13 15 18 20 21 20 19 20 17 17 17 16 18 18 16 15 16 16 17 18 18 17 16 15 16 16 14 12 12 11 11 12 12 13 12 12 13 13 12 11 11 10 8 8 8 8 7 7 5 5 7 9 12 13 12 11 9 8 6 6 6 6 7 7 7 8
6 5 6 8 8 10 3 4 4 6 6 6 5 5 4 3 3 5 9 9 15 19 20 21 19 19 19 15 12 13 13 14 17 21 22 22 21 20 20 18 18 18 17 16 15 14 14 15 15 16 17 18 18 17 15 16 16 15 12 11 10 10 11 11 11 11 11 13 14 12 11 11 10 8 9 9 9 9 9 8 7 7 9 12 14 14 13 12 11 10 7 6 5 7 8 9 11
7 6 6 8 9 8 2 6 4 2 5 5 4 5 3 5 1 5 7 12 17 20 21 21 19 18 17 15 14 13 13 15 18 21 22 22 22 21 19 18 18 18 17 15 13 12 13 14 15 15 16 17 17 16 15 15 16 15 12 10 9 9 10 9 9 10 10 11 14 13 11 11 11 9 9 10 10 11 12 11 10 11 11 11 13 15 16 16 14 14 12 8 6 8 10 12 14
7 7 6 8 9 8 5 7 4 3 5 0 2 6 5 6 6 5 6 17 21 21 20 19 19 17 15 13 13 13 12 13 16 19 21 21 21 20 18 18 18 18 17 15 14 13 11 12 13 14 15 15 15 15 15 15 15 13 12 10 9 7 7 8 8 10 10 9 11 13 12 12 12 10 10 11 12 12 13 14 13 13 14 14 15 16 17 19 17 15 15 13 11 11 13 14 13
8 10 9 9 10 7 4 7 4 4 4 3 3 6 7 3 7 4 5 15 19 20 20 19 19 17 15 13 11 12 12 13 16 19 19 18 18 18 17 17 18 18 16 15 14 13 12 11 11 13 13 13 14 15 15 15 14 12 11 10 9 8 7 9 10 10 10 10 9 10 12 14 13 12 12 13 13 13 14 15 15 15 17 17 18 18 18 20 19 15 15 15 15 16 18 16 12
7 6 5 10 10 8 1 4 3 3 2 5 6 6 6 3 4 8 9 12 16 19 19 19 19 16 15 15 12 10 12 14 16 16 15 14 15 17 16 16 18 19 17 15 15 13 13 13 12 12 12 13 14 14 14 14 13 12 11 10 9 9 8 10 10 10 10 9 9 8 10 12 13 12 13 14 14 14 15 16 16 16 17 17 19 21 20 20 20 16 15 15 17 18 17 17 14
6 3 2 8 9 7 4 3 3 4 3 7 7 4 4 0 3 9 12 13 18 20 18 19 18 15 15 14 11 9 12 14 14 14 15 15 15 17 17 15 16 18 17 17 16 14 13 12 12 12 12 13 13 13 14 13 11 11 11 9 8 8 8 9 9 10 9 8 9 9 10 11 12 12 12 13 14 15 16 16 17 17 17 17 18 21 21 21 20 19 16 15 17 17 16 17 15
4 6 3 5 4 5 5 5 5 5 5 8 7 2 4 4 5 7 10 11 18 19 17 17 15 14 13 12 11 9 11 11 12 15 17 17 15 17 18 15 15 18 19 18 17 15 14 12 11 12 12 12 12 13 15 14 11 10 10 8 8 8 8 8 7 8 8 8 9 10 10 10 11 12 12 12 13 15 17 17 17 18 18 18 18 18 20 20 20 20 18 15 15 16 15 14 14
2 3 4 3 1 5 5 6 7 6 6 8 7 3 6 6 4 8 9 8 16 19 17 16 14 14 12 12 11 9 8 8 11 17 19 18 15 16 18 17 16 17 17 18 17 15 13 12 11 12 12 11 12 13 14 12 10 10 8 7 7 8 8 7 6 7 8 8 9 9 10 11 11 11 11 12 13 15 16 18 18 18 18 19 18 18 18 19 19 20 19 17 15 14 13 12 12
3 2 3 3 3 5 6 7 9 7 6 8 7 2 6 7 6 10 9 8 16 18 17 16 15 16 13 10 10 8 6 6 10 17 18 17 15 15 17 18 18 16 16 15 14 13 12 11 10 10 8 8 10 13 13 10 9 9 7 7 8 7 7 6 6 7 9 10 10 11 11 11 11 11 11 12 13 15 16 17 18 18 18 19 19 18 19 19 19 19 19 18 17 15 14 13 13
3 4 3 4 5 5 5 8 10 9 6 7 7 3 4 5 7 9 6 11 19 16 15 17 15 14 11 9 9 8 6 5 7 14 16 15 16 16 16 17 17 16 16 14 12 11 10 9 9 7 6 6 7 10 11 9 8 8 7 8 8 7 6 6 6 8 11 12 13 12 12 11 11 11 12 13 14 15 17 18 19 18 18 19 19 19 19 18 18 18 18 18 18 17 18 17 15
3 4 4 4 6 6 5 7 9 9 6 6 8 3 2 6 9 7 6 14 21 15 14 15 12 11 10 9 9 8 7 5 6 11 14 15 17 18 17 16 15 16 17 15 14 13 10 8 7 7 6 6 6 8 8 7 6 5 4 5 5 5 6 7 7 10 13 14 15 13 11 11 12 12 14 15 15 16 17 18 18 17 16 18 19 20 20 18 18 19 19 18 19 19 19 19 19
4 5 5 5 6 7 7 8 9 10 7 7 8 2 0 7 9 7 10 17 18 14 15 14 11 12 10 10 10 8 8 7 8 12 15 16 18 18 18 17 14 14 14 14 15 14 11 9 8 7 5 5 6 6 6 6 4 2 3 4 5 4 5 8 9 11 13 15 16 14 12 13 14 14 15 16 16 17 18 18 17 16 16 18 19 20 20 19 19 20 20 19 20 20 19 19 20
7 8 7 6 6 7 7 9 11 11 8 7 8 5 4 6 10 15 17 18 17 15 14 11 10 11 10 9 9 9 10 9 11 18 22 21 21 20 21 20 18 17 15 15 15 14 12 11 10 8 4 3 4 5 6 6 6 6 5 5 5 5 6 9 8 10 12 13 14 14 15 15 15 16 16 17 17 19 19 19 18 17 18 19 19 20 20 21 22 22 21 20 20 20 20 19 19
9 8 8 9 8 8 7 11 13 11 7 7 8 8 6 8 13 16 17 16 17 15 13 11 10 9 9 10 10 11 10 8 13 20 22 22 22 23 23 23 23 22 20 19 18 16 15 13 12 10 7 4 3 3 4 4 5 6 6 6 7 5 6 8 8 10 12 12 12 13 14 15 15 16 17 18 18 20 20 20 20 19 19 20 21 21 21 21 22 22 22 21 21 21 21 21 20
11 6 6 9 9 10 8 12 15 12 8 7 9 9 9 13 14 12 15 16 14 12 12 11 11 10 9 10 11 11 9 8 12 16 17 19 20 22 23 23 23 22 21 21 19 18 16 15 14 12 10 8 7 6 4 2 1 2 3 5 6 6 6 8 9 10 11 12 13 13 13 13 13 15 16 18 18 19 20 20 20 19 19 20 22 23 22 21 22 22 22 21 21 21 22 22 21
10 6 4 6 7 8 7 12 17 12 6 6 9 12 12 15 14 12 14 15 11 11 13 11 11 12 9 9 10 9 9 9 10 11 13 15 17 19 21 22 21 20 20 20 18 16 16 16 16 14 13 10 9 8 7 5 3 2 3 4 5 4 5 7 8 9 11 13 13 13 13 13 13 14 15 16 16 16 17 17 18 18 19 20 22 23 23 23 23 23 22 21 20 20 22 22 22
7 5 4 6 8 7 4 11 18 13 6 8 13 13 10 12 14 12 12 12 12 13 15 13 12 11 10 10 9 9 10 9 8 8 9 12 14 17 19 19 19 19 20 19 18 17 15 16 16 15 15 14 12 11 11 9 5 3 4 5 6 5 4 5 6 6 9 12 11 12 13 13 13 14 14 14 14 15 16 17 18 19 19 20 21 22 22 22 23 24 23 22 20 18 20 22 23
6 8 7 7 11 9 5 10 15 11 5 11 16 9 5 8 11 11 9 10 12 11 13 14 11 10 10 10 10 9 9 8 8 8 8 10 12 16 17 17 17 19 19 18 18 17 16 15 15 14 15 15 13 12 13 13 10 8 8 8 7 7 7 6 6 4 4 6 6 8 10 11 11 11 12 13 14 17 18 18 19 19 20 21 21 20 19 20 22 23 23 23 22 21 20 22 23
6 8 10 13 14 9 5 13 12 7 4 9 14 7 2 5 10 11 8 9 10 9 11 12 11 10 9 9 9 8 8 7 7 7 7 9 11 14 16 16 16 17 17 17 16 16 16 17 15 14 15 15 13 12 13 14 13 13 15 13 10 10 11 10 7 7 7 9 10 10 9 10 11 11 11 11 13 17 19 19 18 19 20 20 19 19 21 22 22 22 23 23 25 25 25 24 23
5 7 11 15 14 11 4 14 12 5 5 9 12 9 2 3 6 9 10 11 10 8 9 10 9 9 8 8 7 6 7 6 6 6 7 8 11 13 14 14 16 16 16 16 16 16 17 18 17 15 14 14 13 13 13 14 15 15 16 16 14 13 12 12 11 12 13 14 14 13 11 11 12 11 10 10 11 13 16 18 18 19 18 17 18 20 22 23 23 23 23 24 26 27 28 25 24
5 7 10 11 11 11 7 11 11 6 8 8 8 10 5 3 5 9 12 12 9 8 8 8 8 9 9 8 7 6 6 5 5 5 6 9 12 12 11 14 15 15 15 16 16 17 16 17 17 16 16 15 14 13 13 15 16 16 16 17 17 16 15 16 15 15 15 16 15 14 12 12 12 12 12 12 12 13 15 16 16 17 18 17 18 20 20 20 22 23 24 24 25 26 27 26 25
5 8 9 8 8 8 5 4 5 7 10 5 5 9 6 3 5 8 11 10 8 8 8 8 8 10 9 8 7 6 6 6 6 5 5 9 12 12 12 14 15 15 15 15 15 16 16 16 17 17 16 16 15 15 14 14 15 16 17 18 19 19 18 18 18 17 18 18 17 16 15 15 14 14 14 14 14 15 15 17 16 15 16 17 17 19 18 18 20 23 25 25 24 23 25 26 26
5 9 9 7 9 7 3 4 3 5 9 8 9 9 5 2 6 8 8 6 8 8 7 7 8 9 9 8 7 7 7 6 6 6 7 11 12 12 13 14 14 14 14 15 14 14 15 15 16 17 15 15 16 16 15 14 16 17 18 19 20 20 20 20 20 20 20 20 20 19 18 17 16 16 16 15 15 15 14 16 17 16 16 17 18 20 20 19 20 23 24 24 24 23 24 26 27
6 9 9 7 8 4 0 2 4 4 5 8 12 12 8 3 6 9 6 6 11 11 9 9 9 9 9 8 7 6 6 5 5 6 8 11 12 12 13 14 14 15 15 15 14 14 14 14 14 15 14 14 15 17 17 16 16 17 19 19 20 20 21 21 22 22 21 22 22 21 20 19 18 17 17 17 17 17 16 15 16 17 17 18 18 19 21 22 22 22 23 23 23 24 25 24 26
6 7 6 4 5 2 1 3 4 3 5 6 9 11 9 4 4 6 6 10 14 13 12 13 12 10 8 7 7 7 5 5 5 5 7 10 11 12 13 14 14 15 14 14 14 12 12 12 13 13 14 15 16 15 16 17 17 18 19 19 19 20 20 21 21 20 20 21 22 22 22 21 21 20 20 20 19 20 20 19 18 18 19 19 19 20 22 22 21 20 21 22 22 24 26 23 24
7 6 5 3 2 1 2 1 2 4 4 6 8 8 6 2 2 1 8 14 13 11 11 13 13 11 9 7 7 7 6 6 6 5 6 6 8 11 13 14 13 13 13 12 12 11 10 10 12 14 16 16 15 15 16 16 16 18 19 19 19 19 19 20 21 20 21 21 21 22 23 23 24 24 24 24 23 22 22 22 21 21 21 21 19 20 22 22 21 20 20 22 22 22 24 24 25
8 6 5 5 2 2 3 2 2 2 3 8 8 8 3 2 2 4 9 13 12 12 11 11 11 10 9 9 8 7 7 7 6 5 5 5 8 12 13 12 11 11 11 10 11 10 10 11 11 15 17 15 14 15 16 16 15 17 19 18 18 19 19 20 20 21 22 23 23 23 23 24 24 25 25 26 25 23 23 23 22 22 22 21 19 21 22 24 25 23 23 25 23 22 23 25 27
6 5 5 5 4 4 4 2 3 3 4 6 5 6 2 3 2 5 10 13 12 12 11 10 10 9 9 9 9 8 8 7 6 5 5 6 10 12 11 9 8 8 9 9 11 10 11 13 14 16 17 16 13 14 17 17 17 18 18 17 17 18 19 19 20 21 21 22 23 23 23 23 23 24 24 24 24 24 25 24 23 22 22 22 22 22 23 24 25 25 25 26 25 24 25 26 28
4 3 4 6 5 4 4 4 5 4 3 3 3 3 2 4 6 7 10 12 13 13 11 10 9 8 8 8 8 8 8 8 7 5 5 6 9 11 10 8 7 8 9 10 10 9 10 14 17 17 16 17 15 14 17 19 19 20 19 18 17 18 19 19 19 19 19 20 22 22 22 22 22 23 23 23 24 24 25 26 25 24 23 24 24 23 23 24 26 26 26 25 26 26 24 25 26
4 4 4 5 5 4 4 2 2 4 4 1 1 3 5 5 6 7 10 12 13 13 12 10 9 8 8 7 6 7 8 8 6 5 4 5 8 10 9 7 7 8 10 10 9 10 12 14 17 17 16 19 18 15 18 21 20 21 21 20 19 19 18 19 18 18 18 19 21 22 22 21 21 23 24 24 24 24 25 25 25 24 24 24 24 24 24 25 26 27 27 26 27 26 25 25 25
5 5 5 3 4 4 3 2 1 3 4 1 2 5 7 5 3 7 12 13 13 13 13 11 9 9 9 7 7 7 7 7 7 6 5 7 8 7 7 7 7 8 10 10 11 13 16 17 18 18 16 19 20 18 20 22 22 22 22 21 20 19 19 19 18 18 19 19 20 23 23 21 21 22 23 24 25 25 25 24 24 26 27 26 26 26 25 25 26 27 28 27 26 24 24 25 26
4 4 5 4 4 4 2 3 3 4 4 3 4 7 6 4 4 9 13 13 14 14 13 12 10 9 8 7 8 7 6 6 6 5 5 6 7 8 9 10 11 12 14 15 15 15 17 18 18 17 17 19 21 21 22 23 22 22 21 21 20 20 20 20 19 19 20 19 20 24 24 21 20 21 21 23 24 25 26 27 26 28 29 28 26 25 25 25 25 26 26 26 25 24 23 23 24
6 3 4 5 5 3 2 3 4 5 4 3 6 6 3 2 5 12 14 13 15 14 11 11 11 9 7 7 6 6 5 4 4 4 4 7 9 12 13 13 15 17 18 19 19 18 19 19 18 18 19 21 22 23 24 23 22 21 21 21 20 21 22 21 20 20 21 20 20 24 25 21 20 21 21 22 23 25 28 29 29 30 30 29 27 25 24 23 23 23 24 24 25 23 23 23 23
5 3 4 5 5 3 1 2 2 5 4 4 5 3 3 0 2 10 15 15 15 15 12 10 10 9 8 7 6 6 5 4 3 4 5 8 11 14 15 15 15 17 18 18 19 19 18 18 19 19 21 22 23 24 23 22 22 21 22 22 21 22 22 22 22 22 21 22 23 25 26 23 22 22 22 22 23 25 27 29 30 32 32 29 26 24 23 21 20 22 22 22 22 20 20 18 17
5 4 4 6 6 4 2 4 3 3 4 5 6 3 2 1 3 4 12 15 14 14 14 11 10 10 8 7 7 6 5 4 3 4 6 9 12 13 14 15 16 16 17 18 18 18 17 17 19 20 22 22 23 23 22 22 23 23 23 22 22 22 23 23 24 24 23 24 24 26 28 27 25 24 23 24 24 24 26 27 29 33 35 33 30 27 25 22 20 20 21 20 18 16 16 14 13
Wind_Direction
281 294 335 338 325 335 318 282 93 295 129 247 255 265 260 244 247 273 294 1 70 34 52 67 70 79 93 103 108 87 57 43 24 128 122 122 112 112 118 122 127 129 127 127 126 127 132 135 139 141 141 143 145 146 146 145 140 130 121 119 114 105 105 108 108 110 110 107 103 94 91 91 92 94 92 92 92 91 91 92 93 93 92 92 92 92 92 91 90 90 90 90 90 92 93 100 109
265 278 309 317 305 317 298 196 101 281 155 257 255 230 257 272 268 262 297 74 94 85 74 79 84 90 105 113 105 80 52 41 65 80 107 117 109 110 119 122 127 127 125 124 126 129 134 138 140 141 142 145 147 147 148 147 141 132 126 124 118 110 109 109 106 110 111 109 103 95 93 92 93 96 97 96 95 95 94 94 94 93 91 90 89 90 91 89 88 87 88 90 91 95 100 106 114
271 281 299 315 290 237 308 324 164 232 206 246 256 246 267 297 287 165 108 96 104 101 83 77 79 88 97 87 64 71 79 56 77 84 108 113 105 114 121 119 121 123 124 122 125 130 134 138 142 142 145 147 148 149 150 149 142 134 130 128 121 113 112 109 104 108 111 109 104 99 96 93 95 98 100 100 100 99 98 96 94 92 89 86 84 85 87 85 84 86 87 90 93 99 105 111 117
280 281 289 318 316 202 358 269 182 200 217 232 257 261 257 260 67 84 98 106 106 107 90 78 70 66 81 86 85 86 105 106 95 101 100 106 116 125 120 116 116 118 121 122 126 129 134 139 142 144 147 149 149 151 151 149 143 136 134 130 123 116 115 111 106 108 108 109 105 103 100 96 96 99 102 102 102 101 98 96 92 90 88 86 85 85 85 84 84 86 89 91 94 97 100 105 115
289 281 269 273 324 234 166 234 198 198 217 221 251 257 245 188 104 87 94 86 79 94 97 97 86 69 73 83 104 99 114 116 100 102 96 109 122 124 118 117 116 119 124 125 129 130 135 140 143 148 150 152 152 152 152 149 143 139 137 132 127 122 119 114 112 113 109 109 107 106 106 101 98 98 103 104 104 103 99 96 93 91 89 88 88 87 84 82 83 81 86 92 93 94 92 92 104
298 298 268 238 258 302 58 253 236 229 230 222 244 248 257 302 105 103 86 56 56 87 93 95 100 90 73 62 60 79 130 124 104 106 110 119 123 120 117 118 119 126 130 126 130 134 138 143 146 149 152 153 153 152 150 146 142 143 140 135 133 129 126 118 115 117 111 112 112 111 111 108 105 102 104 105 104 103 101 99 93 88 85 88 90 86 83 79 77 80 88 94 95 92 86 90 106
293 315 276 194 272 284 177 248 247 250 245 228 241 258 264 236 129 83 84 73 55 87 95 99 107 93 76 76 55 54 98 117 115 116 120 122 120 118 119 123 127 130 131 127 131 137 139 143 146 149 151 151 150 147 144 143 145 146 139 135 136 134 133 125 117 117 113 119 121 119 118 113 112 107 105 105 103 101 100 95 88 76 71 85 98 94 90 85 79 83 91 98 101 87 90 107 120
264 275 275 134 267 238 192 251 250 247 255 249 252 260 203 186 105 75 96 107 88 94 102 112 103 87 69 82 77 59 83 104 113 118 123 123 123 123 124 127 127 126 128 129 132 139 141 145 147 149 149 147 144 141 140 143 146 143 135 134 137 136 136 132 126 121 116 126 127 124 122 115 112 110 109 110 108 103 99 93 83 71 71 87 104 101 92 86 79 82 90 105 103 83 107 125 130
251 222 280 234 229 249 239 245 244 245 250 255 257 248 185 156 94 81 58 110 148 112 112 120 97 97 93 82 88 77 86 106 114 120 124 125 128 127 127 127 126 125 128 132 138 142 145 149 148 148 146 143 142 142 142 141 141 135 131 133 136 137 135 136 135 126 122 130 130 125 124 118 113 113 116 117 112 104 95 86 74 69 79 91 98 94 86 84 76 74 77 92 93 97 124 137 137
237 206 228 247 228 254 254 243 246 247 244 244 238 234 228 155 108 89 45 128 140 104 107 103 92 106 109 91 93 100 104 113 114 118 124 125 127 124 123 128 133 131 130 135 143 146 148 151 148 147 146 144 145 144 141 138 137 132 132 133 132 134 132 136 139 134 129 133 133 130 128 124 120 118 119 119 112 99 89 77 68 70 82 94 97 91 84 81 71 67 66 69 79 112 137 143 140
239 228 193 254 258 247 246 248 254 252 252 252 221 186 187 125 94 113 163 223 112 106 109 94 93 105 96 92 103 115 114 113 112 114 121 125 122 119 121 127 133 132 133 142 147 148 148 150 148 148 148 146 147 143 139 137 135 133 133 133 131 132 132 135 142 141 136 135 137 136 133 129 127 125 122 122 115 97 84 65 67 87 89 100 105 97 89 78 67 63 58 58 77 120 143 146 143
236 258 171 221 235 236 248 254 261 265 261 253 223 164 140 98 68 115 194 224 113 118 122 107 117 110 94 102 111 113 111 111 117 117 120 120 116 114 115 117 121 130 140 150 149 147 147 150 150 149 148 146 144 140 138 135 133 134 132 131 134 135 137 138 141 143 140 137 138 140 137 134 132 129 125 123 118 102 68 42 82 119 111 111 110 102 93 77 63 55 51 54 72 125 147 150 147
216 250 196 230 228 233 250 260 264 273 272 235 181 149 112 90 89 234 216 172 119 114 119 117 127 106 96 114 107 107 105 115 121 119 119 113 108 106 105 108 118 139 152 151 145 144 148 149 146 143 143 142 139 138 135 134 133 131 130 132 135 135 135 133 131 134 137 139 140 142 140 139 138 134 135 144 147 137 3 26 112 135 123 118 111 99 92 78 62 47 49 55 68 125 152 154 148
208 234 211 248 258 251 253 263 267 274 277 215 143 133 108 89 134 223 251 105 91 102 108 112 113 95 104 128 103 116 114 119 121 120 115 105 104 102 104 116 133 152 153 143 138 143 147 143 142 140 140 140 139 140 136 134 133 132 131 133 135 133 132 127 122 123 130 137 139 139 139 144 146 148 169 207 247 254 270 48 133 145 131 126 116 101 96 79 68 46 43 54 69 114 155 156 149
213 237 219 262 273 274 265 259 270 274 274 210 157 129 112 108 134 232 185 99 97 113 111 117 117 100 141 158 129 144 128 123 123 121 107 98 104 106 112 131 144 149 138 129 135 142 141 139 143 142 141 141 142 144 140 135 135 135 136 137 137 134 132 128 124 121 122 128 134 138 140 146 147 151 170 203 233 257 260 193 154 159 148 139 126 110 106 84 75 53 43 51 69 101 152 158 149
214 232 231 272 266 273 266 264 279 268 261 213 177 117 109 111 83 59 107 96 93 91 85 106 122 120 151 150 131 133 127 125 125 119 105 95 100 109 123 141 142 134 124 127 137 141 141 141 141 139 136 135 138 141 141 137 136 139 140 142 141 139 136 131 128 126 126 130 137 143 145 148 141 132 128 144 182 211 219 184 173 174 170 165 151 122 110 90 82 65 53 54 70 101 144 159 150
219 225 244 270 258 259 261 278 290 265 214 169 160 93 112 127 96 91 89 85 81 75 69 58 67 100 123 121 125 129 125 123 121 115 106 97 97 107 129 145 133 122 125 134 141 142 143 140 136 136 132 131 133 136 143 141 139 141 143 148 148 147 144 139 135 133 137 144 149 153 154 149 136 124 114 106 124 167 179 169 179 187 186 182 176 150 114 81 85 80 67 65 78 106 140 154 149
223 199 218 248 244 247 260 264 288 338 136 169 167 115 129 157 123 121 100 89 86 79 77 74 71 80 97 108 118 125 127 123 120 116 109 103 101 108 131 149 130 120 128 136 144 145 145 143 142 143 139 141 140 135 142 144 142 142 144 152 155 155 150 146 141 136 144 154 163 170 168 158 143 135 128 115 119 154 180 170 180 191 194 192 187 183 164 85 93 97 85 79 90 115 138 143 141
210 193 211 236 236 252 272 270 1 19 291 191 147 149 157 164 116 113 121 102 94 85 88 88 86 87 91 102 112 121 132 130 129 126 117 113 116 121 134 149 135 125 133 142 149 147 146 149 150 151 147 150 148 137 139 141 139 139 145 153 157 159 157 152 145 147 156 165 185 188 179 175 167 155 149 144 139 146 170 183 188 193 197 201 196 197 219 226 184 147 119 102 106 123 139 140 134
208 212 230 239 230 257 277 297 33 358 328 21 84 40 138 133 108 119 131 106 102 103 109 104 103 109 106 108 114 122 131 124 122 121 115 115 127 136 141 149 140 133 141 150 152 147 147 148 152 155 153 153 148 138 138 138 136 137 146 154 157 162 164 162 161 168 173 181 199 200 191 189 192 183 168 169 170 158 161 182 202 201 200 205 203 201 213 224 219 192 172 144 129 132 143 145 140
199 210 230 253 254 279 281 354 43 340 350 12 27 31 79 125 116 141 127 108 112 123 130 123 122 123 119 120 117 117 111 95 97 106 112 117 129 136 139 148 145 139 143 152 157 153 146 147 155 158 157 157 149 140 139 138 139 141 148 156 160 164 169 169 172 180 184 193 204 205 209 209 209 200 183 180 188 189 180 180 202 213 210 209 207 205 210 221 222 209 201 186 164 156 157 158 159
214 233 236 259 275 284 278 253 62 351 347 351 8 36 57 111 91 122 113 107 118 128 131 124 124 123 118 121 116 108 92 80 86 98 107 112 119 122 127 140 141 139 142 151 160 157 149 151 159 161 162 165 157 148 144 143 147 152 157 161 163 167 174 174 179 190 191 201 213 212 216 227 224 205 195 189 188 203 214 199 188 204 214 215 214 212 214 221 224 222 218 211 197 195 201 203 207
217 254 248 248 241 255 276 295 75 24 346 344 354 335 3 32 25 112 105 113 126 127 129 121 120 120 118 120 113 99 85 79 81 87 96 105 113 119 129 137 139 141 145 153 160 160 156 157 162 164 166 169 166 159 153 151 155 163 168 171 170 170 179 181 187 200 204 207 220 223 218 227 230 210 208 205 198 208 224 231 199 188 201 211 216 218 220 222 226 231 231 228 214 226 242 245 265
216 250 252 256 246 245 286 60 70 34 330 311 327 319 93 81 309 115 115 132 133 126 122 118 118 120 119 112 99 93 89 87 85 87 94 104 115 124 132 136 138 139 140 152 160 156 158 162 163 163 164 165 166 166 162 158 161 171 175 179 182 184 191 193 193 202 215 214 218 228 224 228 232 215 213 215 210 215 226 234 229 214 202 204 212 216 220 222 232 241 240 243 229 242 254 258 280
225 246 252 269 270 251 136 87 68 39 279 287 315 311 133 165 201 78 102 109 115 117 113 115 118 116 110 100 97 97 92 91 91 92 94 101 114 122 126 130 134 133 136 151 160 152 154 161 161 164 163 161 165 169 166 159 162 176 185 192 198 202 204 202 201 207 222 222 217 225 230 234 238 228 221 224 220 220 229 235 237 233 220 214 214 215 217 219 234 245 238 241 243 250 260 268 276
219 238 252 262 269 257 173 131 110 217 239 269 310 282 247 184 117 67 88 105 112 116 114 115 114 107 99 97 101 101 95 92 94 96 98 103 111 116 122 128 131 133 142 154 158 152 150 153 159 166 166 164 166 164 158 156 161 175 188 198 205 207 212 217 221 222 221 220 220 226 233 236 240 241 235 233 231 230 232 234 234 234 228 226 223 221 222 222 232 241 230 225 228 236 246 256 262
208 218 238 253 271 278 187 132 128 224 221 146 216 260 265 235 119 137 126 116 121 119 117 114 107 101 97 97 97 96 95 93 95 99 100 102 108 114 124 129 129 135 145 154 155 151 150 151 155 164 166 158 150 145 146 153 161 171 179 190 202 206 216 223 226 224 216 215 225 233 234 233 238 245 242 238 238 236 234 234 233 234 234 232 231 231 232 232 234 236 229 222 219 225 236 244 243
222 205 235 245 262 281 205 111 141 205 212 183 198 242 262 323 110 163 153 129 122 119 120 112 103 101 99 96 95 93 92 89 90 95 96 100 108 115 126 132 130 135 142 148 154 153 152 155 158 164 161 147 140 139 144 153 159 168 175 183 196 202 211 219 219 220 221 221 225 228 227 230 238 243 243 240 239 238 236 236 233 234 238 235 233 235 238 239 239 240 242 238 229 227 236 242 236
236 175 262 251 249 258 213 158 185 176 210 199 179 238 256 122 177 167 151 139 124 122 120 108 101 101 100 95 92 86 84 88 91 96 101 104 107 112 123 132 128 132 139 144 152 155 157 160 163 164 157 148 145 141 142 149 159 171 179 180 185 194 203 214 213 216 226 228 225 226 227 231 237 239 241 239 237 238 237 237 234 234 236 234 234 237 240 241 243 246 249 250 244 237 239 240 235
233 173 199 263 261 255 217 176 203 195 213 202 152 179 226 195 217 163 147 143 125 123 117 106 104 101 100 97 92 86 87 98 110 114 113 111 109 108 119 130 124 125 134 141 148 153 160 166 170 167 158 154 152 148 145 151 165 176 178 172 174 188 201 214 216 219 227 225 223 229 233 236 236 236 240 240 237 238 237 237 235 235 234 233 236 240 244 245 246 248 247 249 249 248 247 243 238
243 173 180 210 217 254 229 183 201 206 214 197 136 129 217 209 202 146 148 139 117 118 113 106 106 104 102 102 101 101 102 107 110 112 112 112 110 105 114 128 127 123 126 133 140 146 154 163 172 172 163 156 149 148 149 154 167 172 167 160 170 184 197 212 225 235 235 226 224 229 235 239 240 242 247 247 246 244 240 238 239 240 239 238 241 246 252 252 251 250 247 245 242 244 247 246 245
193 196 209 194 193 243 226 189 197 204 209 193 146 146 224 205 175 154 157 130 107 106 108 106 105 108 111 112 112 107 95 79 88 102 109 112 112 106 107 116 120 122 124 123 125 133 140 149 164 168 161 154 143 143 146 152 168 171 164 167 183 194 202 212 223 237 238 235 232 228 229 236 243 247 249 250 254 252 247 244 245 246 243 241 245 249 253 254 254 254 250 245 237 233 232 235 244
185 180 198 196 200 230 225 190 200 208 199 190 171 182 232 200 162 153 146 108 97 91 97 103 105 109 113 110 103 97 86 60 71 93 101 105 107 104 99 101 103 109 120 121 115 115 117 127 144 141 131 132 131 131 131 143 173 185 182 182 194 202 211 227 238 238 238 241 241 233 228 235 243 245 245 250 256 254 252 252 250 249 245 243 245 248 251 253 256 257 252 246 239 233 230 229 232
208 179 199 225 207 214 220 185 199 209 191 191 188 192 245 172 150 145 122 97 97 102 109 109 111 110 107 101 94 95 99 91 88 98 100 95 93 93 92 95 95 94 104 114 117 114 105 108 121 118 115 116 115 114 117 141 178 199 204 199 208 212 217 238 248 241 238 239 241 242 238 241 246 246 243 247 252 253 253 254 252 251 249 246 247 248 250 251 253 256 254 250 244 241 238 233 231
190 175 197 244 226 220 210 177 193 203 191 194 184 165 333 149 130 99 86 89 94 108 116 115 113 109 104 101 99 97 91 82 72 80 86 82 80 82 85 89 91 90 91 94 104 111 109 113 120 121 135 135 120 115 125 154 173 200 232 241 247 246 247 252 249 240 237 233 231 238 243 245 247 245 243 244 247 252 254 255 253 250 250 254 255 253 252 251 252 254 254 254 250 249 248 243 238
199 180 191 222 230 239 212 171 186 190 183 192 168 152 171 130 93 83 82 87 92 98 106 108 106 105 103 99 98 90 80 70 60 63 69 71 72 75 78 80 81 83 82 81 87 93 97 106 113 115 135 161 149 148 153 163 170 185 204 221 234 252 274 268 247 234 241 241 231 232 239 242 243 242 243 245 245 249 253 256 255 249 248 253 257 258 256 254 254 255 255 256 255 255 255 250 243
223 189 191 213 222 246 216 169 183 178 157 187 169 148 141 90 78 86 87 86 92 97 100 99 97 95 96 94 90 84 77 70 64 61 63 67 70 74 76 76 77 76 75 77 77 76 77 81 82 83 86 86 90 125 151 168 180 193 202 206 208 222 258 259 243 239 248 252 242 238 245 248 249 247 248 251 250 252 254 255 257 255 249 247 252 259 261 258 256 257 258 257 257 257 256 252 245
246 218 200 214 215 237 219 167 181 173 140 182 170 126 95 80 77 79 82 83 84 93 96 93 93 88 86 88 85 83 78 69 64 57 56 60 63 70 72 73 73 69 68 71 70 68 69 66 60 61 67 65 55 58 64 61 140 229 246 226 209 201 211 218 223 232 239 248 250 252 259 263 261 257 256 258 257 256 256 255 256 257 254 251 251 254 257 256 255 256 256 256 255 254 254 255 249
253 258 242 239 221 232 225 171 177 173 145 172 141 107 91 87 85 74 78 86 80 79 83 79 82 82 77 80 80 81 76 64 61 55 50 52 57 64 67 68 67 65 65 68 68 67 66 59 54 52 53 52 51 52 41 29 24 340 324 287 255 236 215 212 216 219 225 235 239 244 258 270 273 271 268 265 261 258 258 257 257 257 255 253 252 252 254 255 255 254 252 252 252 251 250 252 248
247 247 243 259 241 227 212 169 172 175 164 140 116 100 97 94 88 81 80 90 89 81 79 75 74 75 71 71 71 73 74 67 63 59 50 48 53 58 61 62 63 62 62 61 59 59 55 50 49 51 51 46 42 44 39 30 21 3 348 322 300 288 267 254 257 247 235 234 227 229 247 262 273 279 276 268 262 262 264 262 261 258 254 254 253 251 253 256 259 257 252 250 249 247 247 247 246
245 238 227 253 254 235 184 159 166 168 137 116 111 88 81 104 100 101 94 91 94 88 86 83 77 77 73 68 66 64 68 69 66 63 56 54 54 56 59 60 60 58 58 56 54 52 48 46 44 44 46 40 30 31 31 27 23 22 13 356 336 323 327 327 316 306 278 267 260 251 248 251 263 269 269 269 262 258 259 261 263 262 258 259 256 256 259 260 261 260 254 249 245 242 242 244 243
245 240 229 242 254 256 175 155 158 148 113 122 119 93 8 121 114 121 121 102 97 90 91 91 85 84 78 71 71 68 70 70 69 67 63 63 61 59 57 56 57 57 55 55 54 54 51 48 44 39 38 33 26 23 22 22 21 20 19 15 3 343 338 344 342 337 331 322 314 303 289 283 284 272 266 273 267 258 256 258 264 266 263 263 263 267 271 268 263 259 254 249 246 245 243 241 240
241 238 232 239 249 276 236 162 161 145 152 157 137 125 162 160 131 135 126 108 104 98 94 98 95 88 83 83 81 78 80 77 75 74 70 69 67 63 59 55 55 55 55 55 53 53 52 49 46 42 38 31 23 19 17 20 19 18 21 21 16 6 352 347 345 342 340 340 334 320 310 313 312 299 290 288 277 271 267 263 266 268 268 271 273 273 272 272 269 263 259 254 251 250 243 236 237
234 242 240 243 243 270 266 167 161 147 147 164 145 125 134 179 165 146 127 113 113 109 102 104 102 97 95 95 94 92 92 91 90 84 79 75 68 65 65 59 55 53 53 52 50 48 46 46 45 42 42 37 27 21 18 18 18 17 18 19 20 17 9 4 0 358 358 357 353 344 335 335 333 324 315 309 298 291 287 281 280 278 278 281 279 274 270 271 273 269 265 260 255 252 246 239 239
226 247 249 252 246 256 262 177 165 138 134 162 158 119 113 184 171 144 129 124 129 127 121 118 110 109 108 103 104 103 96 95 96 93 89 83 75 70 69 62 56 54 52 49 47 45 42 41 42 40 40 39 33 29 25 23 22 20 17 16 18 16 13 11 9 10 10 6 4 4 359 352 346 336 327 321 313 302 296 296 297 292 285 279 273 272 272 272 273 273 269 265 262 261 259 252 244
207 242 258 266 256 252 230 198 191 132 137 175 181 146 125 167 168 153 143 148 153 141 130 126 118 119 118 114 116 110 103 101 95 93 87 85 85 79 72 66 58 54 52 51 48 43 40 35 37 40 36 34 35 34 32 29 26 25 22 18 16 13 11 9 9 11 10 7 7 7 4 359 353 348 342 336 330 322 310 304 305 303 295 286 278 273 272 272 272 273 273 272 271 270 266 258 249
176 225 256 275 262 260 76 168 140 126 168 189 184 168 147 139 184 177 159 160 156 144 140 137 126 123 123 123 123 112 109 107 97 95 85 79 80 77 74 67 59 53 49 49 46 41 41 36 35 41 38 33 32 32 34 33 30 27 24 20 18 15 12 9 8 7 5 4 3 1 360 359 355 352 349 344 342 339 331 320 312 309 306 300 292 281 277 278 276 275 277 278 276 271 265 260 255
183 209 229 261 273 265 356 19 95 163 229 208 173 162 147 131 211 198 127 128 140 140 144 141 132 130 128 126 123 118 113 104 96 92 80 73 69 66 66 62 56 52 47 46 45 42 45 41 35 39 45 43 36 33 33 30 30 29 25 22 20 16 14 11 6 4 5 3 360 356 355 355 353 351 349 347 346 342 337 329 320 313 311 307 299 293 290 288 284 281 279 277 274 270 264 261 258
200 209 186 197 277 208 220 322 151 198 232 203 162 135 131 116 292 289 108 122 131 131 136 135 133 133 130 128 125 122 118 108 100 85 76 74 71 64 59 55 54 54 51 48 45 44 44 42 42 45 47 44 39 41 41 35 30 29 27 24 21 18 15 11 6 4 3 2 358 355 353 351 349 348 347 348 348 345 338 331 324 317 313 310 304 301 299 292 289 288 282 277 274 269 263 260 255
194 207 160 158 170 167 214 230 178 196 183 182 148 92 98 179 344 24 93 111 118 119 123 125 128 130 129 130 123 114 107 99 88 77 75 71 72 71 62 56 57 58 59 53 45 42 31 27 43 53 48 41 44 52 52 47 39 30 27 25 21 20 18 14 10 5 360 358 358 356 353 350 348 347 347 349 350 348 343 336 328 321 318 314 308 306 305 301 298 293 284 279 274 265 260 259 254
191 197 137 170 189 158 193 181 161 207 184 161 112 77 124 168 89 68 92 100 105 111 116 117 120 127 129 126 120 113 104 93 83 73 68 63 71 78 73 66 63 63 64 56 50 44 31 33 48 53 45 38 46 57 53 51 49 40 33 30 26 22 20 17 14 6 359 357 358 356 353 350 349 348 348 349 350 348 345 342 336 330 325 319 312 310 310 307 304 299 290 281 275 269 264 258 253
206 193 145 203 213 136 156 171 149 166 154 99 54 67 104 109 98 95 100 105 110 113 117 122 127 135 132 123 120 115 106 98 88 77 61 60 78 87 79 70 66 67 64 56 52 40 32 46 56 54 43 31 37 56 54 52 53 45 38 36 33 28 24 21 17 11 5 2 0 357 353 351 349 350 350 349 349 348 345 342 340 337 332 325 318 313 311 309 305 299 294 287 280 277 267 254 250
196 213 193 213 212 138 132 182 126 101 106 10 316 97 101 107 111 117 118 114 120 126 128 132 135 126 115 109 109 106 105 103 94 92 79 64 83 94 91 84 77 77 72 62 51 38 42 55 57 55 45 33 39 57 56 52 51 46 42 39 36 33 28 24 19 16 12 7 4 2 358 355 354 353 353 352 353 353 348 344 342 339 334 329 322 315 310 309 305 298 293 289 285 281 268 256 251
176 202 207 210 226 198 128 139 150 108 119 173 206 143 138 151 146 142 141 134 136 140 136 133 121 107 103 99 97 94 100 109 109 114 106 80 78 90 104 98 81 77 72 61 51 48 57 62 56 53 44 35 43 55 53 50 49 47 46 40 37 35 31 28 25 20 16 11 8 5 2 360 358 357 357 358 0 1 357 352 347 341 334 327 320 314 310 307 304 300 294 288 287 281 267 258 253
214 198 188 170 200 231 179 150 168 157 143 124 147 155 156 169 162 156 155 149 147 144 135 127 113 107 110 104 102 102 98 103 110 117 113 97 80 67 75 76 67 65 62 56 52 52 60 61 54 50 41 38 46 51 51 48 45 47 46 39 39 39 34 31 29 23 19 17 12 8 6 5 2 359 359 1 3 4 3 0 353 346 340 334 325 316 311 308 305 301 294 289 288 281 266 257 256
259 263 218 184 166 176 187 177 162 156 156 127 137 161 199 203 159 162 160 151 148 142 130 124 119 117 117 109 106 104 96 90 98 106 106 103 88 69 65 65 62 62 57 53 50 50 56 56 52 48 44 44 47 49 49 46 43 46 44 40 43 42 37 34 32 27 24 23 17 11 11 10 5 3 4 3 3 5 6 6 4 359 354 347 338 327 319 314 310 307 299 293 291 283 270 262 259
241 248 217 202 183 145 153 260 181 144 146 137 136 178 239 293 140 167 158 145 144 142 133 129 127 123 116 109 105 97 95 94 90 96 96 97 93 81 70 65 66 67 62 55 49 49 52 52 50 49 47 48 48 48 47 43 43 45 42 42 46 43 40 38 33 30 28 26 21 17 15 13 10 11 10 7 7 9 11 14 15 14 12 7 360 352 342 333 325 322 313 301 293 284 273 264 256
199 206 199 194 186 155 156 276 266 155 135 141 145 159 185 341 320 184 148 138 140 139 133 129 126 123 116 112 113 110 114 114 98 93 89 91 94 92 84 73 68 69 69 63 55 49 46 48 55 53 48 50 50 48 45 42 44 44 41 43 44 42 43 41 36 33 31 27 24 22 21 18 16 14 11 10 10 10 13 18 17 15 17 17 16 14 8 1 353 343 331 317 303 289 274 260 249
Height
775 775 775 776 775 776 776 776 792 793 794 807 797 793 777 754 755 752 751 747 747 743 732 734 733 734 746 762 770 772 776 781 783 788 800 791 780 781 780 783 786 787 790 792 795 797 800 802 803 805 807 808 810 811 812 813 814 815 815 816 816 817 817 818 819 820 821 821 823 823 824 824 825 825 825 826 826 827 827 828 828 829 829 830 830 830 831 831 832 832 832 833 834 834 834 834 835
774 775 774 776 774 779 780 777 799 801 800 812 796 788 770 752 757 756 755 749 747 740 733 737 738 742 747 754 758 767 777 775 771 774 781 780 781 784 782 785 786 788 791 793 795 798 801 802 804 806 807 809 810 811 813 814 815 815 816 817 817 818 818 819 820 821 822 823 824 824 825 825 826 826 826 827 827 828 829 829 830 830 831 831 832 832 832 832 833 833 833 834 835 835 835 835 836
775 775 774 776 775 778 781 782 801 805 806 812 794 776 762 760 759 752 749 744 738 732 734 738 742 748 750 759 762 772 783 775 770 772 776 778 780 785 785 785 787 789 791 794 796 798 801 803 805 807 808 810 811 812 813 814 815 816 817 817 818 819 819 820 821 822 823 824 825 826 827 827 827 827 828 828 828 829 830 830 831 831 832 833 833 833 834 834 834 834 835 835 835 836 836 836 837
774 775 775 777 779 781 786 791 797 802 808 805 790 770 759 760 754 747 742 736 731 729 736 741 750 751 751 768 769 773 782 776 773 773 777 779 780 785 785 786 788 790 792 794 796 799 802 804 806 807 809 810 811 813 813 815 816 817 818 818 819 820 821 822 823 824 824 825 826 827 827 828 828 829 829 829 830 830 831 832 832 833 833 834 834 835 835 835 836 836 835 835 836 836 836 837 837
774 775 776 777 785 785 787 792 790 796 801 793 785 768 756 754 748 745 737 732 729 731 738 743 756 753 751 764 767 776 780 776 775 772 777 781 782 785 786 788 790 791 794 795 797 800 802 805 806 808 810 811 812 813 814 816 817 817 818 819 820 821 822 823 824 824 825 826 827 828 829 829 830 830 830 831 831 831 832 833 833 834 834 835 835 836 836 836 836 837 837 836 837 837 837 837 837
774 775 775 777 781 779 787 796 793 793 786 777 778 764 754 749 744 743 736 734 731 733 738 743 755 756 762 764 763 772 772 774 776 774 778 782 784 785 786 789 790 793 795 796 798 800 802 805 807 809 810 812 813 814 815 816 817 818 819 820 820 821 822 823 825 825 826 827 828 829 830 830 831 831 832 832 832 833 833 834 835 835 835 836 836 837 837 838 837 837 838 837 838 837 837 837 837
775 778 776 781 781 779 794 800 795 792 775 765 766 758 752 746 740 740 740 740 739 738 740 746 748 757 773 768 769 771 766 771 773 776 779 782 785 785 788 789 791 794 795 798 799 801 803 805 807 809 810 812 813 815 816 817 818 818 819 820 821 822 823 824 825 826 827 828 829 830 830 831 832 833 833 834 834 834 835 835 836 836 837 837 837 838 838 838 838 838 839 838 839 838 838 837 837
776 781 777 785 790 786 795 796 791 786 770 758 755 752 748 741 737 739 743 743 745 744 746 749 744 763 779 769 778 777 768 773 773 778 781 782 785 786 789 790 792 794 797 799 800 802 804 806 807 809 811 813 814 816 817 817 818 819 820 821 822 823 824 825 826 827 828 829 830 831 831 832 833 834 834 835 835 836 836 836 837 837 837 838 838 838 838 839 839 839 839 839 839 839 839 838 838
776 781 780 787 794 792 793 793 786 776 766 756 751 749 741 735 735 739 744 743 742 743 751 750 744 768 782 774 784 779 772 777 776 780 781 784 786 787 790 790 793 795 798 800 801 803 804 806 808 810 812 814 815 816 817 818 819 820 821 822 823 824 825 826 827 828 828 830 831 832 832 833 834 834 835 836 836 837 837 837 837 838 838 838 839 839 839 839 839 839 840 840 840 840 839 839 839
777 779 781 787 793 797 797 791 781 770 761 751 748 746 739 734 733 737 742 744 740 744 752 747 748 768 778 780 786 779 777 779 777 782 783 786 787 789 790 791 794 795 799 801 801 803 804 807 808 811 813 814 815 816 817 818 820 820 822 823 824 825 826 827 828 828 829 830 831 832 833 834 835 835 836 836 837 837 838 838 838 839 839 839 839 839 840 840 840 840 840 840 840 840 840 840 840
782 777 778 790 796 801 798 789 778 767 755 746 744 739 735 733 734 737 740 742 739 748 752 748 761 770 775 783 785 780 778 779 780 783 785 787 789 790 792 794 797 798 800 800 801 803 805 808 809 811 812 814 815 816 818 819 820 821 823 824 825 826 827 828 828 829 829 830 831 833 834 834 835 836 837 837 838 838 839 839 839 839 839 840 840 840 840 840 841 840 841 841 841 840 840 840 840
786 781 780 794 797 795 789 785 776 765 754 747 745 735 729 730 736 740 741 744 740 749 752 750 764 766 778 789 783 779 778 781 782 784 787 789 791 792 795 798 800 802 801 800 801 804 806 808 810 811 812 814 815 817 818 819 821 822 824 825 826 827 827 828 828 829 830 831 832 833 835 835 836 837 838 839 839 839 839 840 840 840 840 840 840 840 840 841 841 841 841 841 841 841 840 841 841
783 782 785 792 787 785 783 780 772 766 759 747 742 732 727 730 737 739 740 743 740 751 752 746 754 759 780 789 781 780 779 782 783 786 789 790 793 795 797 800 802 802 802 802 803 805 807 808 810 813 814 815 817 818 819 820 822 823 825 826 827 828 828 829 829 830 831 832 833 834 835 836 837 837 838 839 840 840 840 841 841 841 841 841 841 841 841 841 841 841 841 841 842 842 841 841 841
776 776 783 789 781 779 779 776 769 768 764 744 735 729 726 730 734 734 737 747 746 750 751 742 747 762 782 787 786 785 781 783 784 787 790 792 795 795 798 800 799 798 800 803 805 806 808 810 813 814 816 817 818 819 820 821 822 824 825 826 827 828 829 830 831 832 832 832 833 834 836 836 837 837 838 838 839 840 840 841 841 842 842 842 842 842 842 841 842 842 842 842 842 842 842 842 842
770 771 777 785 782 780 775 772 767 767 762 743 732 726 727 729 728 733 737 750 753 743 745 744 744 763 781 784 789 784 779 783 784 788 791 794 795 797 800 797 796 798 804 807 808 809 810 812 813 815 817 818 819 820 821 822 823 824 826 827 828 829 830 831 832 833 833 833 833 834 835 836 836 836 837 838 838 839 840 841 841 842 842 842 842 842 842 842 842 842 842 842 842 843 843 843 844
764 768 778 785 784 783 774 768 765 764 757 741 732 725 732 733 728 737 734 739 750 741 745 752 746 757 772 775 779 778 779 783 785 789 792 795 797 799 800 797 799 803 808 809 809 810 811 813 814 816 818 819 820 821 822 823 824 825 826 828 828 829 830 831 833 833 834 833 833 834 834 834 835 835 836 837 838 839 839 840 841 842 842 842 843 843 843 842 842 842 842 842 842 843 843 844 845
761 769 782 787 785 783 772 766 763 759 750 739 733 728 737 740 732 734 730 733 748 749 750 754 750 753 764 769 773 775 780 783 785 789 792 797 800 802 801 800 805 807 808 809 809 811 812 814 815 818 818 819 820 821 823 824 825 826 827 828 829 830 830 832 833 834 834 833 833 833 834 834 834 835 835 836 837 838 838 839 841 842 842 843 843 843 843 843 843 843 842 843 843 843 843 845 845
765 774 784 787 784 777 765 761 755 750 748 740 735 732 737 743 737 732 735 745 751 755 758 758 758 760 764 769 773 777 781 784 786 789 794 799 802 803 803 803 806 807 808 808 809 811 814 816 817 819 819 819 820 821 823 823 825 826 827 828 828 830 830 832 833 834 834 833 833 833 833 834 834 834 833 834 835 837 838 838 840 841 842 842 843 843 843 843 843 843 843 843 843 843 843 845 846
767 774 780 781 776 766 756 753 747 745 746 738 735 734 736 739 737 734 743 756 757 763 768 765 769 772 771 773 776 779 781 784 786 789 793 798 802 803 803 804 806 807 808 809 810 812 814 816 818 819 819 820 821 822 823 823 825 826 827 828 828 830 831 833 833 833 833 833 833 833 833 834 834 833 833 833 834 836 837 837 839 840 841 842 843 843 844 844 844 844 843 843 844 844 844 845 846
765 770 778 774 765 761 753 747 743 741 740 737 737 735 736 735 734 737 746 757 761 768 773 772 778 779 777 777 778 781 783 785 787 790 794 798 801 802 802 803 805 807 809 809 810 813 815 817 819 820 820 821 821 822 823 824 825 826 826 827 828 829 831 832 833 832 832 833 833 833 834 834 834 834 833 833 833 835 836 837 838 839 840 841 842 843 844 844 844 844 843 844 844 845 845 846 846
763 766 772 765 760 763 754 744 740 738 736 738 738 737 740 735 733 739 745 760 769 770 768 770 777 778 779 780 780 782 784 786 789 792 795 798 801 802 803 804 805 807 809 810 811 814 816 818 819 820 821 821 822 823 824 825 826 826 826 827 828 830 831 832 832 832 832 833 833 833 834 834 835 834 834 834 834 835 836 838 838 839 839 840 841 842 843 843 843 844 844 844 844 845 846 846 846
762 761 761 759 760 764 753 743 741 738 738 739 739 743 743 735 737 741 745 761 769 766 764 765 770 773 777 780 781 783 785 788 791 794 796 799 802 803 805 806 807 809 810 811 812 814 817 818 819 820 821 821 823 824 825 826 827 827 826 827 829 830 832 832 832 832 833 834 833 833 834 834 835 835 835 834 834 835 836 838 839 839 839 840 840 841 842 843 843 844 844 844 844 845 845 846 846
763 762 756 755 756 757 750 743 742 739 742 745 743 742 739 739 745 742 744 756 757 757 759 762 767 771 775 779 781 784 788 791 794 796 798 801 803 804 806 807 808 809 811 812 813 816 817 818 819 820 821 822 823 825 826 827 828 828 827 827 829 831 831 831 831 831 833 834 834 834 834 834 834 835 835 835 835 836 837 838 839 839 839 839 839 840 842 842 843 843 844 844 844 845 845 845 846
761 763 756 752 751 750 747 745 743 741 745 745 741 740 741 747 749 743 746 749 749 753 756 760 767 770 775 780 784 787 790 794 796 799 800 802 805 806 807 808 809 811 812 814 814 816 817 817 818 820 821 823 824 825 827 828 829 829 828 828 830 831 831 830 831 831 833 834 834 834 834 835 834 835 835 835 835 836 837 837 838 838 838 839 839 840 840 841 842 842 843 843 844 844 845 845 845
758 760 755 750 749 745 744 745 745 744 745 744 743 745 745 745 745 747 749 747 749 754 756 760 766 771 777 782 787 790 793 796 798 800 802 804 806 807 809 810 811 812 813 814 815 816 817 817 818 820 821 823 824 826 827 829 830 829 829 828 829 830 829 829 830 831 832 832 833 833 834 834 834 834 835 835 835 836 836 837 837 838 838 839 839 839 840 841 841 842 842 842 842 843 843 844 844
755 754 753 750 749 744 743 745 746 747 746 745 749 750 746 741 743 753 751 747 751 754 759 763 768 775 781 785 789 792 795 798 800 802 804 806 807 808 810 811 812 813 813 814 815 816 817 818 819 820 821 823 825 827 828 829 830 830 829 828 828 828 828 828 829 830 831 831 832 833 833 834 833 833 834 834 835 835 836 836 837 837 838 839 839 839 839 840 840 841 841 841 841 840 841 841 842
748 749 750 749 748 744 743 745 744 747 746 746 752 754 748 740 747 761 755 747 749 754 761 766 771 780 784 788 791 793 797 799 802 804 805 807 808 809 810 811 812 813 814 814 815 816 817 818 819 820 822 824 826 828 829 830 830 830 829 828 828 827 827 827 828 830 830 831 831 832 832 832 832 832 832 833 834 835 835 835 836 837 837 838 838 838 839 839 840 840 841 841 839 837 838 839 840
745 748 751 749 748 746 744 746 746 747 748 746 749 754 750 745 752 759 752 747 750 756 763 768 775 782 786 791 794 796 798 802 805 805 807 808 809 810 811 811 812 813 814 814 815 817 817 818 819 821 823 825 826 828 829 830 830 829 828 828 827 828 827 827 829 830 830 830 830 831 831 831 831 831 831 832 833 834 835 835 835 836 836 836 837 837 838 838 839 839 840 840 838 836 837 838 838
744 746 756 755 750 752 748 747 747 749 751 744 747 762 762 754 755 752 746 748 752 757 765 772 780 784 788 792 795 798 800 803 806 806 807 808 809 810 811 812 812 813 814 815 816 817 818 818 819 821 823 825 827 829 830 830 828 827 827 827 828 828 828 828 829 830 829 830 830 830 830 830 830 830 831 831 832 833 833 834 834 834 835 835 836 836 836 837 837 838 839 839 837 836 836 837 837
746 745 756 761 760 760 750 747 748 750 751 740 749 777 775 758 753 749 745 747 753 761 769 776 782 786 790 793 797 800 801 802 802 804 805 806 809 810 810 812 812 813 815 816 817 817 819 819 819 821 823 826 828 829 829 828 826 825 826 827 828 828 827 827 828 829 829 829 830 830 829 830 830 830 831 831 832 832 832 832 832 833 833 834 835 835 835 835 836 836 837 837 836 835 835 836 836
749 752 757 763 772 768 750 746 750 753 750 738 752 781 776 759 754 748 744 746 754 765 774 780 784 787 791 794 797 801 801 801 801 802 804 806 808 810 811 812 812 814 814 816 817 818 819 820 821 822 824 826 827 828 827 826 825 825 828 828 828 827 826 827 827 828 829 829 829 829 830 830 830 830 830 831 831 831 831 830 831 831 832 833 833 833 833 833 834 834 835 836 835 834 835 835 836
750 763 769 766 773 770 753 746 749 754 751 740 754 778 773 759 755 748 744 748 758 771 779 783 786 788 792 794 796 801 803 803 803 804 806 807 810 811 812 812 813 814 815 817 818 818 819 820 821 822 824 825 826 827 827 826 825 827 829 829 827 827 827 827 827 828 828 828 828 829 830 830 830 830 830 830 830 830 830 830 830 830 831 831 831 831 831 831 832 832 833 834 834 834 834 834 835
755 764 775 770 770 771 760 750 744 748 752 746 754 771 770 761 755 747 745 752 765 780 787 788 790 791 793 796 798 803 806 806 806 806 808 810 811 812 813 813 814 816 817 818 818 819 820 820 821 822 823 824 825 827 827 826 826 826 828 828 827 827 827 827 827 828 827 826 826 827 829 829 830 830 830 830 830 830 830 829 829 830 830 830 830 830 829 830 830 831 832 832 833 833 833 833 834
764 764 771 768 765 769 766 757 746 744 752 754 755 764 767 761 754 749 748 757 771 785 792 792 793 795 796 799 801 804 807 808 808 809 811 812 813 814 814 814 815 817 819 820 820 821 822 822 823 822 822 823 825 827 828 828 826 825 826 827 827 827 828 828 828 828 826 825 825 826 828 828 829 830 830 829 829 829 829 829 829 829 829 828 828 828 828 828 829 829 830 831 831 831 831 831 832
769 767 771 770 765 764 764 760 749 746 754 757 759 766 767 760 756 756 758 765 776 786 791 794 796 797 799 801 803 806 808 809 810 811 812 813 814 815 815 816 817 818 819 821 822 824 825 826 825 824 824 824 825 827 828 829 827 826 826 826 826 826 827 828 828 828 826 825 824 825 826 827 828 828 828 828 828 828 828 829 829 828 828 828 827 827 827 827 827 827 828 829 830 830 830 830 830
761 761 765 770 767 762 757 753 745 745 755 759 761 769 767 763 766 771 773 774 781 789 792 795 799 800 802 803 805 807 810 812 813 812 814 815 816 816 816 816 817 818 820 822 823 824 826 828 828 827 826 826 827 829 829 830 829 828 828 828 827 827 827 826 826 826 825 825 825 826 826 826 827 827 827 827 827 827 827 827 827 827 828 827 826 826 825 825 825 826 826 827 828 828 829 829 829
751 754 758 761 764 760 750 746 742 740 755 760 759 765 768 772 779 780 781 782 786 793 796 799 802 803 805 806 808 809 812 814 814 814 815 817 818 817 817 817 818 820 822 823 823 825 826 827 828 828 827 827 828 829 829 829 829 829 829 830 830 829 828 826 825 826 824 824 825 825 826 826 827 826 827 827 827 827 826 826 826 826 826 826 825 824 824 824 824 825 825 826 827 827 828 828 829
750 753 756 756 757 754 744 742 740 737 751 760 756 767 781 786 789 786 785 790 795 797 799 802 804 805 807 809 811 812 814 815 815 816 818 819 820 819 818 819 820 822 823 824 825 826 826 827 828 828 828 828 828 828 829 829 829 829 829 829 830 830 830 828 828 828 827 825 824 824 825 826 827 827 827 827 827 826 826 825 825 824 825 824 823 823 822 823 823 823 824 824 825 826 826 827 828
752 754 758 759 751 747 743 739 737 737 748 759 761 777 795 794 792 793 793 797 802 801 802 806 807 809 811 812 814 814 816 817 817 819 821 821 821 821 820 821 822 824 824 825 826 827 827 828 828 828 828 828 828 828 828 828 828 828 828 828 829 830 830 830 830 831 830 828 827 826 825 824 825 826 827 827 825 825 824 824 823 823 823 822 822 822 822 822 823 823 823 824 824 824 825 825 826
753 755 761 761 747 745 750 742 738 737 742 754 765 783 797 796 796 800 800 800 803 805 806 809 811 813 815 815 816 817 818 820 821 822 823 823 823 823 822 823 824 825 825 826 827 828 828 829 829 829 828 828 827 827 827 827 827 827 828 828 828 829 829 829 829 830 829 827 828 828 827 826 824 824 825 825 824 823 822 821 821 821 821 821 820 821 822 824 824 824 824 824 825 824 823 822 823
752 751 756 757 744 740 744 741 738 739 744 751 764 789 800 798 803 807 805 804 805 807 809 812 815 816 817 818 818 819 820 822 823 824 824 824 824 824 824 825 826 826 827 828 829 829 830 829 829 829 828 828 827 826 826 825 825 826 826 827 827 827 828 828 828 828 828 827 827 828 828 828 826 825 824 824 823 822 820 820 820 820 819 819 819 820 822 823 824 823 824 824 824 822 821 820 820
754 746 745 746 741 736 736 738 742 754 769 760 760 797 813 799 802 809 809 810 811 812 813 815 818 818 819 821 822 822 823 823 825 825 825 825 825 826 826 827 828 828 828 830 830 831 831 830 830 829 828 828 827 826 825 825 824 825 825 826 826 826 827 827 828 827 827 826 826 825 826 826 825 824 824 823 822 820 819 819 819 819 819 819 820 820 820 819 819 819 820 821 819 818 818 817 816
757 743 734 734 735 736 737 739 746 763 778 763 752 789 815 804 801 804 806 814 817 816 817 818 819 820 821 823 825 825 825 826 826 827 826 826 826 827 828 828 828 829 830 831 831 831 831 831 830 830 829 828 827 826 825 824 824 824 825 825 826 826 826 826 827 827 826 825 824 823 823 823 822 821 821 821 820 818 818 818 818 818 818 818 818 818 816 815 816 816 816 815 814 814 814 813 812
753 734 727 731 730 735 738 737 745 753 763 764 755 772 803 810 803 799 803 814 820 820 821 821 820 821 823 824 826 827 827 827 828 828 827 826 827 828 829 830 829 830 830 830 831 831 831 831 831 830 829 828 828 827 826 825 825 824 824 825 825 825 825 826 826 825 825 824 823 822 821 821 820 819 819 818 818 817 816 816 817 817 816 817 816 815 814 814 813 813 813 812 812 812 811 810 810
741 726 724 727 726 732 735 736 743 745 760 780 771 769 798 813 801 798 804 813 821 822 821 822 821 822 823 824 827 827 827 828 828 829 828 826 827 829 830 830 830 831 831 831 831 831 832 832 831 830 829 829 829 828 827 827 826 825 825 824 824 824 824 824 824 824 824 823 822 822 820 819 818 818 817 817 816 816 816 815 814 814 814 814 814 813 813 812 811 810 809 809 810 811 811 809 808
729 722 724 724 724 729 733 738 744 748 767 787 777 767 790 811 805 802 810 813 818 822 820 821 821 822 824 825 827 827 827 829 829 829 828 827 828 830 830 831 832 832 831 832 832 832 832 832 831 831 830 830 829 829 828 827 827 826 826 825 824 823 823 823 823 822 822 821 821 820 820 819 818 817 817 816 816 815 815 814 812 812 812 811 811 812 812 811 809 807 806 806 807 807 807 807 806
723 725 730 731 730 729 733 738 742 757 774 776 768 759 772 802 807 797 800 803 806 815 819 821 820 821 824 825 826 827 828 829 829 829 828 828 829 830 831 832 832 832 832 832 832 832 833 833 832 832 831 831 830 829 829 828 828 827 826 826 824 823 823 822 822 822 822 821 820 819 819 819 818 818 817 816 816 814 813 813 812 811 811 810 809 809 809 808 806 805 804 803 804 804 803 803 803
723 728 735 743 743 738 742 746 750 771 781 765 755 750 761 795 806 792 790 794 800 810 816 819 821 822 823 824 825 826 827 829 829 829 828 829 830 831 832 832 832 833 833 833 833 833 833 833 833 832 832 831 831 830 830 829 829 828 827 826 825 824 823 823 823 823 823 822 821 820 819 818 817 817 816 815 814 813 811 811 811 810 810 809 808 807 807 805 804 804 803 801 800 800 800 799 798
727 731 740 756 762 759 763 767 767 776 773 754 745 750 773 803 807 796 795 798 803 809 812 816 819 821 822 823 824 825 827 828 828 829 829 830 832 832 832 833 833 834 834 834 834 833 833 833 832 832 832 831 831 831 830 830 830 829 828 827 826 825 824 823 823 823 823 822 822 820 818 817 816 815 814 813 812 811 810 810 809 809 808 807 807 805 804 803 802 801 800 798 797 797 797 795 794
730 735 744 761 770 775 782 778 775 777 767 750 742 757 792 814 808 802 801 802 805 808 811 815 817 820 822 822 823 825 826 827 828 829 830 832 832 832 833 834 835 835 834 834 834 833 833 832 832 832 832 832 831 831 830 830 830 829 829 828 827 827 826 825 824 823 822 822 821 820 818 816 815 813 812 812 811 811 810 809 808 808 807 805 804 803 802 801 799 797 796 795 794 794 793 792 792
727 726 734 751 757 766 779 776 775 778 766 755 756 772 802 816 812 807 805 804 807 810 813 815 818 820 821 822 824 826 827 828 830 831 832 832 833 834 835 835 835 835 835 835 834 833 832 832 832 832 832 832 831 831 831 830 830 830 830 829 829 828 827 827 826 824 823 822 821 820 819 817 815 814 813 811 811 811 810 808 807 806 805 803 801 800 799 797 795 794 793 792 791 791 790 789 789
726 720 730 745 740 744 759 760 762 767 766 775 790 800 807 811 812 809 806 808 809 812 816 818 820 821 821 824 826 827 829 830 831 833 833 833 834 835 836 836 836 836 835 835 834 833 833 832 833 832 832 832 832 832 831 830 830 830 830 830 829 829 828 828 827 826 825 824 822 821 819 818 816 815 813 812 811 810 809 807 805 804 802 801 799 798 797 795 793 791 789 788 788 788 789 787 786
727 727 735 734 724 731 748 756 757 760 774 799 811 812 813 813 815 812 809 812 813 814 818 820 822 823 823 826 828 829 831 831 833 834 834 835 836 836 837 837 837 837 836 835 834 833 833 833 833 833 833 832 832 832 831 830 830 830 830 830 830 830 829 828 828 827 826 824 823 822 820 818 816 815 813 812 811 809 808 806 804 802 801 799 797 796 794 793 791 788 787 785 784 785 786 785 783
726 733 731 723 722 728 739 756 767 766 782 809 812 811 815 817 819 816 812 815 817 816 818 820 823 825 826 828 830 831 832 833 834 835 835 836 836 837 838 838 838 837 836 835 834 834 834 834 834 833 833 833 833 833 832 831 831 830 830 830 830 830 829 829 828 827 826 825 824 822 820 818 816 815 814 813 811 809 807 805 803 801 799 797 795 793 792 790 788 786 784 782 782 782 782 781 780
718 724 717 723 740 745 740 752 769 773 787 810 815 813 812 811 814 816 814 815 817 816 818 822 825 827 829 831 832 833 834 834 835 836 836 837 837 838 838 838 838 837 837 836 835 835 834 834 834 834 834 834 833 833 832 832 832 831 831 831 831 830 829 829 828 827 826 825 824 822 820 819 817 816 814 813 811 809 807 805 802 800 797 795 793 791 789 787 785 783 781 780 779 779 779 777 777
714 718 716 719 732 742 741 742 753 765 782 803 814 816 811 805 805 808 810 812 815 818 821 824 827 829 830 832 833 835 836 836 836 836 836 837 838 839 838 839 838 837 837 836 835 835 835 835 835 835 835 834 834 834 833 833 833 833 833 832 831 830 830 829 828 827 826 825 824 823 820 819 818 816 814 812 810 808 806 804 802 799 796 793 790 788 786 785 783 781 779 778 777 777 776 775 775
723 729 729 725 723 729 737 738 737 748 769 793 810 816 811 803 800 800 803 808 813 817 822 825 828 830 831 832 834 836 837 838 838 837 837 837 838 839 839 839 838 838 837 837 837 837 836 836 836 836 835 835 835 835 835 835 835 835 834 833 832 831 830 829 828 827 826 825 824 823 821 819 817 816 814 812 810 808 807 805 802 800 796 792 789 787 785 783 781 779 777 776 775 774 774 774 774
720 727 727 725 726 731 745 752 741 734 750 775 795 808 810 804 801 799 799 805 812 815 820 825 828 829 831 833 834 836 838 838 839 838 838 839 839 840 840 840 839 839 838 838 839 838 838 837 837 837 836 836 836 836 837 837 836 836 835 834 833 832 831 829 828 827 827 826 825 823 822 820 818 816 814 812 811 809 807 805 803 801 797 793 789 787 784 781 779 778 776 775 774 773 773 773 774